Find Badr 5

NORAD ID: 36592 Int'l Des: 2010-025 Owner: ARAB Country: I-ARAB operational
HEOCIRCULARGSOGEO

当前视图

正在加载3D地球...

About Badr 5

Badr 5 (NORAD 36592) is a satellite launched Jun 3, 2010 by ARAB of I-ARAB. It operates in HEO, CIRCULAR, GSO, GEO orbit with a mass of 5420.00 kg.

即将过境

Passes for default location (London). Set your location on the main map for personalized predictions.

高度历史

Loading altitude history...

两行轨道根数

1 36592U 10025A 26178.52716883 .00000165 00000-0 00000+0 0 9998
2 36592 0.0493 137.2183 0003984 50.4773 308.2369 1.00267783 53326
Epoch: Jun 27, 2026 • Age: 8 hours

当前状态

高度 35779.5 km
速度 3.08 km/s
星下点 0.00°N, 30.55°E
发射日期 Jun 3, 2010
运行时间 16 years
类型 other

技术详情

分类 Payload
质量 5420.00 kg
干质量 3000.00 kg
总质量 5420.00 kg
长度 4.50 m
直径 2.90 m
跨度 39.40 m
形状 Box + 2 Pan + Dish
制造商 EADSB
平台类型 Eurostar 3000
阶段状态 In Orbit
所有者/国家 ARAB/I-ARAB

Most Searched